Location: Madrid
(40.4167°N, 3.7036°W)
Time: 08:13:10
(UTC+00:00)

ISS - Pass Details

Date: 11 May 2025
Orbit: 416 x 420 km, 51.6° (Epoch: 12 May)

Event Time Altitude Azimuth Distance (km) Brightness Sun altitude
Rises 23:23:08 0° 303° (WNW) 2,360 0.7 -30.4°
Reaches altitude 10° 23:26:18 10° 336° (NNW) 1,496 -0.1 -30.5°
Maximum altitude 23:27:44 12° 1° (N) 1,369 -0.4 -30.6°
Enters shadow 23:28:09 12° 9° (N) 1,379 -0.4 -30.6°
